Regional Weather Roundup
Issued by NWS

Home | Current Version | Previous Version | Text Only | Print | Product List | Glossary On
Versions: 1 2 3 4 5 6 7 8 9 10 11 12 13 14 15 16 17 18 19 20 21 22 23 24 25 26 27 28 29 30 31 32 33 34 35 36 37 38 39 40 41 42 43 44 45 46 47 48 49 50
491
ASUS44 KLIX 160601
RWRLA
LOUISIANA WEATHER ROUNDUP
NATIONAL WEATHER SERVICE NEW ORLEANS LA
100 AM CDT WED APR 16 2014

NOTE: "FAIR" INDICATES FEW OR NO CLOUDS BELOW 12,000 FEET WITH NO
      SIGNIFICANT WEATHER AND/OR OBSTRUCTIONS TO VISIBILITY.
      SKY/WX - SKY CONDITION AND SIGNIFICANT WEATHER.
      TMP - AIR TEMPERATURE.    DP   - DEWPOINT TEMPERATURE.
      RH  - RELATIVE HUMIDITY.  PRES - PRESSURE.
      HX  - HEAT INDEX.         WCI  - WIND CHILL INDEX.

*  THESE STATIONS ARE NOT NWS OR FAA STATIONS AND ARE NOT UNDER
   NWS QUALITY CONTROL.

LAZ040-048-061>063-065-066-069-160700-
SOUTHEAST LOUISIANA

CITY           SKY/WX    TMP DP  RH WIND       PRES   REMARKS
N.O. AUDUBON     N/A     50  32  50 MISG        N/A
N.O. INTL ARPT FAIR      51  35  54 NE22G29   30.17S
6HR MIN TEMP:  50; 6HR MAX TEMP:  58;

N.O. LAKEFRONT FAIR      52  38  58 N25       30.18S
6HR MIN TEMP:  51; 6HR MAX TEMP:  59;

N.O. DOWNTOWN* FAIR      52  30  43 N13       30.18R
6HR MIN TEMP:  52; 6HR MAX TEMP:  61;

SLIDELL        FAIR      46  33  60 N9        30.17F
6HR MIN TEMP:  43; 6HR MAX TEMP:  57;

BATON ROUGE    FAIR      44  33  65 NE8       30.19F
6HR MIN TEMP:  44; 6HR MAX TEMP:  57;

BOOTHVILLE     FAIR      56  36  47 NE13G24   30.15F
6HR MIN TEMP:  55; 6HR MAX TEMP:  58;

BELLE CHASSE   FAIR      50  33  52 NE9       30.17R
6HR MIN TEMP:  50; 6HR MAX TEMP:  58;

BOGALUSA*        N/A     39  35  84 N5        30.20F
6HR MIN TEMP:  39; 6HR MAX TEMP:  56;

GALLIANO*      NOT AVBL
NEW ROADS*     NOT AVBL
GONZALES*      FAIR      46  33  61 N7        30.18S
6HR MIN TEMP:  46; 6HR MAX TEMP:  56;

HAMMOND*       NOT AVBL
HOUMA*         NOT AVBL
PORT FOURCHON* CLEAR     54  39  58 NE15      30.17S

$$

LAZ041-044-053-054-160700-
SOUTHWEST LOUISIANA

CITY           SKY/WX    TMP DP  RH WIND       PRES   REMARKS
LAKE CHARLES   FAIR      45  37  73 E6        30.20R
6HR MIN TEMP:  43; 6HR MAX TEMP:  60;

LAFAYETTE      FAIR      45  35  68 NE5       30.19S
6HR MIN TEMP:  45; 6HR MAX TEMP:  56;

PATTERSON      FAIR      48  32  53 NE14G20   30.21R
6HR MIN TEMP:  48; 6HR MAX TEMP:  55;

SALT POINT       N/A     50  36  58 VRB3      30.18R
6HR MIN TEMP:  50; 6HR MAX TEMP:  59;

NEW IBERIA     FAIR      47  35  63 NE8       30.20R
6HR MIN TEMP:  46; 6HR MAX TEMP:  56;

CHENAULT AIRPK NOT AVBL

$$

LAZ027-028-160700-
CENTRAL LOUISIANA

CITY           SKY/WX    TMP DP  RH WIND       PRES   REMARKS
FORT POLK      FAIR      43  35  73 E3        30.18F
6HR MIN TEMP:  42; 6HR MAX TEMP:  57;

ALEXANDRIA INT FAIR      43  36  76 NE5       30.19S
6HR MIN TEMP:  43; 6HR MAX TEMP:  57;

ALEXANDRIA     FAIR      44  35  70 E5        30.20S
6HR MIN TEMP:  41; 6HR MAX TEMP:  58;


$$

LAZ001-002-160700-
NORTHWEST LOUISIANA

CITY           SKY/WX    TMP DP  RH WIND       PRES   REMARKS
SHREVEPORT     FAIR      42  36  79 CALM      30.18S
6HR MIN TEMP:  41; 6HR MAX TEMP:  58;

BARKSDALE AFB  FAIR      44  35  72 SE7       30.19S
6HR MIN TEMP:  40; 6HR MAX TEMP:  59;

DTN SHREVEPORT FAIR      44  35  70 E6        30.19S
6HR MIN TEMP:  39; 6HR MAX TEMP:  58;


$$

LAZ014-016-160700-
NORTHEAST LOUISIANA

CITY           SKY/WX    TMP DP  RH WIND       PRES   REMARKS
MONROE         FAIR      42  34  73 E5        30.23F
6HR MIN TEMP:  42; 6HR MAX TEMP:  55;

TALLULAH       FAIR      46  34  62 NE10      30.23F
6HR MIN TEMP:  46; 6HR MAX TEMP:  52;


$$




USA.gov is the U.S. government's official web portal to all federal, state and local government web resources and services.